Faribault, MN

1:18 AM CDT on September 26, 2017 (GMT -0500)
Faribault Municipal

Weather History for KFBL - November, 2014

Change the Weather History Date:

Saturday, November 15, 2014

  Actual Average Record
Temperature  
Mean Temperature 13 °F -  
Max Temperature 23 °F 41 °F 71 °F (1990)
Min Temperature 3 °F 25 °F 3 °F (2014)
Degree Days  
Heating Degree Days 52    
Moisture  
Dew Point 14 °F    
Average Humidity 89    
Maximum Humidity 93    
Minimum Humidity 79    
Precipitation  
Precipitation 0.02 in - - ()
Sea Level Pressure  
Sea Level Pressure 30.23 in    
Wind  
Wind Speed 2 mph (South)    
Max Wind Speed 8 mph    
Max Gust Speed -    
Visibility 6 miles    
Events Snow    
Averages and records for this station are not official NWS values.
T = Trace of Precipitation, MM = Missing Value Source: NWS Daily Summary

Daily Weather History Graph

Daily Weather History Graph

Search for Another Location

Airport or City:

Trip Planner

Search our weather history database for the weather conditions in past years. The results will help you decide how hot, cold, wet, or windy it might be!

Date:

Astronomy

Nov. 15, 2014 Rise Set
Actual Time 7:09 AM CST 4:46 PM CST
Civil Twilight 6:37 AM CST 5:17 PM CST
Nautical Twilight 6:02 AM CST 5:52 PM CST
Astronomical Twilight 5:28 AM CST 6:26 PM CST
Moon 12:06 AM CST (11/15) 1:23 PM CST (11/15)
Length of Visible Light 10h 39m
Length of Day
9h 37m
Last Quarter, 40% of the Moon is Illuminated
Nov 15
Last Quarter
Nov 22
New
Nov 29
First Quarter
Dec 6
Full
Dec 14
Last Quarter

Hourly Weather History & Observations

Time (CST) Temp. Windchill Dew Point Humidity Pressure Visibility Wind Dir Wind Speed Gust Speed Precip Events Conditions
12:14 AM 3.2 °F - 1.4 °F 92% 30.31 in 10.0 mi Calm Calm - N/A   Clear
12:34 AM 5.0 °F - 1.4 °F 85% 30.31 in 10.0 mi Calm Calm - N/A   Clear
12:54 AM 3.2 °F - -0.4 °F 85% 30.31 in 10.0 mi Calm Calm - N/A   Clear
1:14 AM 3.2 °F - -0.4 °F 85% 30.30 in 10.0 mi Calm Calm - N/A   Clear
1:34 AM 5.0 °F - 1.4 °F 85% 30.31 in 10.0 mi Calm Calm - N/A   Clear
1:54 AM 3.2 °F - -0.4 °F 85% 30.31 in 10.0 mi Calm Calm - N/A   Clear
2:13 AM 3.2 °F - -0.4 °F 85% 30.32 in 10.0 mi Calm Calm - N/A   Mostly Cloudy
2:34 AM 5.0 °F - 1.4 °F 85% 30.32 in 10.0 mi Calm Calm - N/A   Overcast
2:54 AM 6.8 °F - 5.0 °F 92% 30.32 in 10.0 mi Calm Calm - N/A   Overcast
3:13 AM 8.6 °F - 6.8 °F 92% 30.31 in 10.0 mi Calm Calm - N/A   Overcast
3:34 AM 8.6 °F - 5.0 °F 85% 30.30 in 10.0 mi Calm Calm - N/A   Overcast
3:54 AM 8.6 °F - 5.0 °F 85% 30.30 in 10.0 mi Calm Calm - N/A   Overcast
4:13 AM 8.6 °F - 6.8 °F 92% 30.30 in 10.0 mi Calm Calm - N/A   Overcast
4:34 AM 10.4 °F - 6.8 °F 85% 30.31 in 10.0 mi Calm Calm - N/A   Overcast
4:54 AM 10.4 °F - 8.6 °F 92% 30.30 in 10.0 mi Calm Calm - N/A   Overcast
5:13 AM 10.4 °F - 8.6 °F 92% 30.29 in 10.0 mi Calm Calm - N/A   Overcast
5:54 AM 12.2 °F - 8.6 °F 85% 30.28 in 10.0 mi Calm Calm - N/A   Mostly Cloudy
6:13 AM 12.2 °F - 8.6 °F 85% 30.28 in 10.0 mi Calm Calm - N/A   Overcast
6:34 AM 12.2 °F - 10.4 °F 92% 30.28 in 10.0 mi Calm Calm - N/A   Overcast
6:54 AM 12.2 °F - 10.4 °F 92% 30.28 in 10.0 mi Calm Calm - N/A   Overcast
7:13 AM 14.0 °F - 10.4 °F 86% 30.28 in 10.0 mi Calm Calm - N/A   Overcast
7:34 AM 14.0 °F - 10.4 °F 86% 30.29 in 10.0 mi Calm Calm - N/A   Overcast
7:53 AM 15.8 °F - 10.4 °F 79% 30.29 in 10.0 mi Calm Calm - N/A   Overcast
8:14 AM 15.8 °F 10.2 °F 12.2 °F 86% 30.29 in 10.0 mi SSE 3.5 mph - N/A   Overcast
8:34 AM 15.8 °F - 12.2 °F 86% 30.29 in 10.0 mi Calm Calm - N/A   Overcast
8:54 AM 17.6 °F 12.3 °F 12.2 °F 79% 30.30 in 5.0 mi South 3.5 mph - N/A   Overcast
9:14 AM 17.6 °F 12.3 °F 14.0 °F 86% 30.31 in 10.0 mi South 3.5 mph - N/A   Overcast
9:34 AM 19.4 °F 14.3 °F 14.0 °F 80% 30.31 in 10.0 mi South 3.5 mph - N/A   Overcast
9:54 AM 19.4 °F - 14.0 °F 80% 30.31 in 7.0 mi Calm Calm - N/A   Overcast
10:14 AM 21.2 °F - 15.8 °F 80% 30.30 in 5.0 mi Calm Calm - N/A   Haze
10:34 AM 21.2 °F - 15.8 °F 80% 30.30 in 4.0 mi Calm Calm - N/A Snow Light Snow
10:54 AM 21.2 °F 16.4 °F 15.8 °F 80% 30.30 in 3.0 mi South 3.5 mph - N/A Snow Light Snow
11:14 AM 21.2 °F 16.4 °F 17.6 °F 86% 30.29 in 1.5 mi South 3.5 mph - N/A Snow Light Snow
11:34 AM 21.2 °F 16.4 °F 17.6 °F 86% 30.28 in 1.0 mi SSE 3.5 mph - N/A Snow Light Snow
11:54 AM 21.2 °F 16.4 °F 17.6 °F 86% 30.27 in 1.0 mi SSE 3.5 mph - N/A Snow Light Snow
12:14 PM 21.2 °F 16.4 °F 17.6 °F 86% 30.27 in 0.8 mi SSE 3.5 mph - N/A Snow Light Snow
12:34 PM 21.2 °F 14.9 °F 17.6 °F 86% 30.26 in 1.0 mi South 4.6 mph - N/A Snow Light Snow
12:54 PM 21.2 °F 14.9 °F 17.6 °F 86% 30.25 in 0.5 mi South 4.6 mph - N/A Snow Light Snow
1:14 PM 21.2 °F 14.9 °F 19.4 °F 93% 30.24 in 0.8 mi SSE 4.6 mph - 0.01 in Snow Light Snow
1:34 PM 21.2 °F 13.6 °F 19.4 °F 93% 30.23 in 1.0 mi SSE 5.8 mph - 0.01 in Snow Light Snow
1:54 PM 21.2 °F 13.6 °F 19.4 °F 93% 30.22 in 0.8 mi South 5.8 mph - 0.01 in Snow Light Snow
2:14 PM 21.2 °F 13.6 °F 19.4 °F 93% 30.21 in 0.8 mi South 5.8 mph - N/A Snow Light Snow
2:34 PM 23.0 °F 15.8 °F 19.4 °F 86% 30.20 in 1.0 mi South 5.8 mph - N/A Snow Light Snow
2:54 PM 23.0 °F 13.9 °F 19.4 °F 86% 30.19 in 1.8 mi SSE 8.1 mph - N/A Snow Light Snow
3:14 PM 21.2 °F 14.9 °F 19.4 °F 93% 30.19 in 2.0 mi SSE 4.6 mph - N/A Snow Light Snow
3:34 PM 21.2 °F 12.6 °F 19.4 °F 93% 30.18 in 2.0 mi SSE 6.9 mph - N/A Snow Light Snow
3:54 PM 21.2 °F 12.6 °F 19.4 °F 93% 30.18 in 2.0 mi SSE 6.9 mph - N/A Snow Light Snow
4:14 PM 21.2 °F 13.6 °F 19.4 °F 93% 30.18 in 2.5 mi South 5.8 mph - N/A Snow Light Snow
4:34 PM 21.2 °F 14.9 °F 19.4 °F 93% 30.18 in 1.8 mi South 4.6 mph - N/A Snow Light Snow
4:54 PM 21.2 °F 12.6 °F 19.4 °F 93% 30.17 in 2.0 mi SSE 6.9 mph - N/A Snow Light Snow
5:14 PM 21.2 °F 13.6 °F 19.4 °F 93% 30.17 in 5.0 mi SSE 5.8 mph - N/A Snow Light Snow
5:34 PM 21.2 °F 12.6 °F 19.4 °F 93% 30.17 in 5.0 mi SSE 6.9 mph - N/A Snow Light Snow
5:54 PM 21.2 °F 14.9 °F 19.4 °F 93% 30.16 in 10.0 mi SSE 4.6 mph - N/A Snow Light Snow
6:14 PM 21.2 °F 13.6 °F 19.4 °F 93% 30.16 in 7.0 mi SSE 5.8 mph - N/A   Overcast
6:34 PM 21.2 °F 13.6 °F 19.4 °F 93% 30.15 in 4.0 mi South 5.8 mph - N/A Snow Light Snow
6:54 PM 21.2 °F 12.6 °F 19.4 °F 93% 30.15 in 4.0 mi South 6.9 mph - N/A Snow Light Snow
7:14 PM 21.2 °F 12.6 °F 19.4 °F 93% 30.14 in 2.5 mi SSE 6.9 mph - N/A Snow Light Snow
7:34 PM 21.2 °F 12.6 °F 19.4 °F 93% 30.14 in 4.0 mi South 6.9 mph - N/A Snow Light Snow
7:54 PM 21.2 °F 13.6 °F 19.4 °F 93% 30.14 in 5.0 mi South 5.8 mph - N/A Snow Light Snow
8:14 PM 21.2 °F 14.9 °F 19.4 °F 93% 30.13 in 2.5 mi South 4.6 mph - N/A Snow Light Snow
8:33 PM 21.2 °F 16.4 °F 19.4 °F 93% 30.13 in 2.0 mi South 3.5 mph - N/A Snow Light Snow
8:54 PM 21.2 °F 16.4 °F 19.4 °F 93% 30.14 in 2.5 mi South 3.5 mph - N/A Snow Light Snow
9:14 PM 21.2 °F 16.4 °F 19.4 °F 93% 30.14 in 1.8 mi South 3.5 mph - N/A Snow Light Snow
9:34 PM 21.2 °F 16.4 °F 19.4 °F 93% 30.14 in 1.2 mi South 3.5 mph - 0.01 in Snow Light Snow
9:54 PM 21.2 °F 12.6 °F 19.4 °F 93% 30.14 in 2.0 mi SSW 6.9 mph - 0.01 in Snow Light Snow
10:14 PM 21.2 °F 14.9 °F 19.4 °F 93% 30.12 in 2.5 mi South 4.6 mph - N/A Snow Light Snow
10:34 PM 21.2 °F 14.9 °F 19.4 °F 93% 30.12 in 2.0 mi SSW 4.6 mph - N/A Snow Light Snow
10:54 PM 21.2 °F 13.6 °F 19.4 °F 93% 30.12 in 2.5 mi SSW 5.8 mph - N/A Snow Light Snow
11:14 PM 21.2 °F 13.6 °F 19.4 °F 93% 30.11 in 1.5 mi South 5.8 mph - N/A Snow Light Snow
11:34 PM 21.2 °F 14.9 °F 19.4 °F 93% 30.10 in 1.8 mi South 4.6 mph - N/A Snow Light Snow
11:54 PM 21.2 °F 13.6 °F 19.4 °F 93% 30.09 in 2.0 mi South 5.8 mph - N/A Snow Light Snow